When you browse on this site, cookies collect data to enhance your experience and personalize the content and advertising you see.
Visit our Privacy Policy to learn more. By continuing to use the site, you agree to this use of cookies and data.
  • In Schweiz
  • Länderverzeichnis
  • Für 7 Tage
  • Wassertemperatur
  • Wetterkarte
  • Widgets
  • user-avatar
    Anmelden

    Stündliche Wetter Zdzierczyzna

    Heute, 15 September, Sonntag

    Zeit Temperatur Niederschläge Wind Luftdruck Luftfeuchtigkeit
    00:00 +12°C° 0 mm 1 m/S 757 mmHg 63%
    01:00 +12°C° 0 mm 2 m/S 757 mmHg 65%
    02:00 +10°C° 0 mm 2 m/S 756 mmHg 68%
    03:00 +10°C° 0 mm 2 m/S 756 mmHg 71%
    04:00 +10°C° 0 mm 3 m/S 755 mmHg 74%
    05:00 +10°C° 0 mm 3 m/S 755 mmHg 71%
    06:00 +11°C° 0 mm 4 m/S 754 mmHg 69%
    07:00 +12°C° 0 mm 4 m/S 754 mmHg 66%
    08:00 +14°C° 0 mm 5 m/S 753 mmHg 61%
    09:00 +16°C° 0 mm 5 m/S 753 mmHg 55%
    10:00 +19°C° 0 mm 6 m/S 752 mmHg 50%
    11:00 +20°C° 0 mm 6 m/S 752 mmHg 49%
    12:00 +21°C° 0 mm 6 m/S 751 mmHg 48%
    13:00 +23°C° 0 mm 6 m/S 751 mmHg 47%
    14:00 +23°C° 0 mm 6 m/S 750 mmHg 49%
    15:00 +22°C° 0 mm 5 m/S 750 mmHg 52%
    16:00 +22°C° 0 mm 5 m/S 749 mmHg 54%
    17:00 +21°C° 0 mm 5 m/S 749 mmHg 58%
    18:00 +20°C° 0 mm 4 m/S 749 mmHg 62%
    19:00 +19°C° 0 mm 4 m/S 749 mmHg 67%
    20:00 +18°C° 0 mm 4 m/S 749 mmHg 66%
    21:00 +17°C° 0 mm 4 m/S 749 mmHg 66%
    22:00 +15°C° 0 mm 4 m/S 748 mmHg 65%
    23:00 +15°C° 0 mm 4 m/S 748 mmHg 64%

    Morgen, 16 September, Montag

    Zeit Temperatur Niederschläge Wind Luftdruck Luftfeuchtigkeit
    00:00 +14°C° 0 mm 3 m/S 748 mmHg 63%
    01:00 +14°C° 0 mm 3 m/S 748 mmHg 63%
    02:00 +14°C° 0 mm 3 m/S 748 mmHg 63%
    03:00 +14°C° 0 mm 4 m/S 748 mmHg 63%
    04:00 +14°C° 0 mm 4 m/S 748 mmHg 63%
    05:00 +14°C° 0 mm 4 m/S 748 mmHg 66%
    06:00 +14°C° 0 mm 4 m/S 748 mmHg 69%
    07:00 +14°C° 0 mm 4 m/S 748 mmHg 72%
    08:00 +13°C° 0.2 mm 4 m/S 748 mmHg 76%
    09:00 +13°C° 0.2 mm 3 m/S 748 mmHg 80%
    10:00 +13°C° 0.2 mm 3 m/S 748 mmHg 84%
    11:00 +13°C° 0.1 mm 3 m/S 747 mmHg 85%
    12:00 +13°C° 0.1 mm 4 m/S 747 mmHg 85%
    13:00 +13°C° 0.1 mm 4 m/S 747 mmHg 85%
    14:00 +13°C° 0.2 mm 4 m/S 747 mmHg 86%
    15:00 +12°C° 0.2 mm 3 m/S 746 mmHg 87%
    16:00 +12°C° 0.2 mm 3 m/S 746 mmHg 88%
    17:00 +12°C° 0.7 mm 3 m/S 746 mmHg 90%
    18:00 +12°C° 0.7 mm 3 m/S 746 mmHg 91%
    19:00 +12°C° 0.7 mm 3 m/S 746 mmHg 93%
    20:00 +11°C° 0.5 mm 3 m/S 746 mmHg 92%
    21:00 +11°C° 0.5 mm 4 m/S 746 mmHg 92%
    22:00 +11°C° 0.5 mm 4 m/S 746 mmHg 91%
    23:00 +11°C° 0 mm 4 m/S 746 mmHg 91%

    übermorgen, 17 September, Dienstag

    Zeit Temperatur Niederschläge Wind Luftdruck Luftfeuchtigkeit
    00:00 +11°C° 0 mm 4 m/S 746 mmHg 90%
    01:00 +11°C° 0 mm 4 m/S 746 mmHg 89%
    02:00 +11°C° 0 mm 4 m/S 746 mmHg 86%
    03:00 +10°C° 0 mm 4 m/S 746 mmHg 84%
    04:00 +10°C° 0 mm 4 m/S 746 mmHg 81%
    05:00 +9°C° 0 mm 5 m/S 746 mmHg 79%
    06:00 +9°C° 0 mm 5 m/S 746 mmHg 77%
    07:00 +9°C° 0 mm 6 m/S 746 mmHg 76%
    08:00 +10°C° 0 mm 6 m/S 746 mmHg 70%
    09:00 +11°C° 0 mm 7 m/S 746 mmHg 65%
    10:00 +12°C° 0 mm 8 m/S 746 mmHg 60%
    11:00 +13°C° 0.1 mm 8 m/S 745 mmHg 58%
    12:00 +13°C° 0.1 mm 8 m/S 745 mmHg 57%
    13:00 +13°C° 0.1 mm 9 m/S 744 mmHg 55%
    14:00 +13°C° 0.1 mm 9 m/S 744 mmHg 58%
    15:00 +12°C° 0.1 mm 8 m/S 744 mmHg 62%
    16:00 +12°C° 0.1 mm 8 m/S 743 mmHg 65%
    17:00 +11°C° 0.3 mm 8 m/S 744 mmHg 68%
    18:00 +10°C° 0.3 mm 7 m/S 744 mmHg 71%
    19:00 +9°C° 0.3 mm 7 m/S 744 mmHg 74%
    20:00 +8°C° 0 mm 7 m/S 744 mmHg 75%
    21:00 +8°C° 0 mm 7 m/S 745 mmHg 77%
    22:00 +6°C° 0 mm 7 m/S 745 mmHg 79%
    23:00 +6°C° 0 mm 7 m/S 745 mmHg 79%

    18 September, Mittwoch

    Zeit Temperatur Niederschläge Wind Luftdruck Luftfeuchtigkeit
    00:00 +6°C° 0 mm 7 m/S 745 mmHg 79%
    01:00 +5°C° 0 mm 7 m/S 745 mmHg 79%
    02:00 +5°C° 0 mm 7 m/S 746 mmHg 80%
    03:00 +5°C° 0 mm 7 m/S 746 mmHg 81%
    04:00 +5°C° 0 mm 7 m/S 746 mmHg 82%
    05:00 +5°C° 0 mm 7 m/S 747 mmHg 80%
    06:00 +5°C° 0 mm 7 m/S 747 mmHg 79%
    07:00 +5°C° 0 mm 7 m/S 748 mmHg 78%
    08:00 +8°C° 0 mm 7 m/S 748 mmHg 72%
    09:00 +9°C° 0 mm 7 m/S 749 mmHg 66%
    10:00 +11°C° 0 mm 7 m/S 749 mmHg 60%
    11:00 +11°C° 0 mm 7 m/S 749 mmHg 57%
    12:00 +12°C° 0 mm 7 m/S 749 mmHg 53%
    13:00 +14°C° 0 mm 6 m/S 749 mmHg 50%
    14:00 +14°C° 0.3 mm 6 m/S 749 mmHg 51%
    15:00 +13°C° 0.3 mm 6 m/S 749 mmHg 53%
    16:00 +13°C° 0.3 mm 6 m/S 749 mmHg 54%
    17:00 +12°C° 0.1 mm 5 m/S 749 mmHg 59%
    18:00 +11°C° 0.1 mm 4 m/S 749 mmHg 65%
    19:00 +9°C° 0.1 mm 3 m/S 749 mmHg 70%
    20:00 +9°C° 0 mm 3 m/S 750 mmHg 71%
    21:00 +8°C° 0 mm 3 m/S 750 mmHg 73%
    22:00 +8°C° 0 mm 3 m/S 750 mmHg 75%
    23:00 +7°C° 0 mm 3 m/S 750 mmHg 76%

    19 September, Donnerstag

    Zeit Temperatur Niederschläge Wind Luftdruck Luftfeuchtigkeit
    00:00 +7°C° 0 mm 3 m/S 750 mmHg 78%
    01:00 +7°C° 0 mm 3 m/S 750 mmHg 80%
    02:00 +5°C° 0 mm 3 m/S 750 mmHg 81%
    03:00 +5°C° 0 mm 3 m/S 750 mmHg 82%
    04:00 +5°C° 0 mm 3 m/S 750 mmHg 83%
    05:00 +5°C° 0 mm 3 m/S 750 mmHg 81%
    06:00 +6°C° 0 mm 4 m/S 750 mmHg 80%
    07:00 +7°C° 0 mm 4 m/S 750 mmHg 79%
    08:00 +8°C° 0.3 mm 4 m/S 751 mmHg 74%
    09:00 +10°C° 0.3 mm 4 m/S 751 mmHg 69%
    10:00 +12°C° 0.3 mm 4 m/S 751 mmHg 64%
    11:00 +12°C° 0.3 mm 4 m/S 751 mmHg 61%
    12:00 +13°C° 0.3 mm 4 m/S 751 mmHg 58%
    13:00 +13°C° 0.3 mm 5 m/S 751 mmHg 55%
    14:00 +13°C° 0.1 mm 4 m/S 751 mmHg 56%
    15:00 +13°C° 0.1 mm 4 m/S 751 mmHg 56%
    16:00 +13°C° 0.1 mm 4 m/S 751 mmHg 56%
    17:00 +12°C° 0.4 mm 4 m/S 752 mmHg 62%
    18:00 +11°C° 0.4 mm 4 m/S 752 mmHg 68%
    19:00 +10°C° 0.4 mm 3 m/S 752 mmHg 73%
    20:00 +8°C° 0.2 mm 4 m/S 753 mmHg 74%
    21:00 +7°C° 0.2 mm 4 m/S 753 mmHg 75%
    22:00 +6°C° 0.2 mm 4 m/S 754 mmHg 76%
    23:00 +6°C° 0 mm 4 m/S 754 mmHg 77%

    20 September, Freitag

    Zeit Temperatur Niederschläge Wind Luftdruck Luftfeuchtigkeit
    00:00 +5°C° 0 mm 3 m/S 755 mmHg 78%
    01:00 +4°C° 0 mm 3 m/S 755 mmHg 79%
    02:00 +4°C° 0 mm 3 m/S 755 mmHg 80%
    03:00 +4°C° 0 mm 3 m/S 755 mmHg 80%
    04:00 +4°C° 0 mm 4 m/S 755 mmHg 80%
    05:00 +4°C° 0 mm 4 m/S 756 mmHg 78%
    06:00 +4°C° 0 mm 4 m/S 756 mmHg 76%
    07:00 +5°C° 0 mm 5 m/S 756 mmHg 74%
    08:00 +7°C° 0 mm 5 m/S 757 mmHg 67%
    09:00 +8°C° 0 mm 5 m/S 757 mmHg 61%
    10:00 +10°C° 0 mm 5 m/S 757 mmHg 54%
    11:00 +10°C° 0 mm 5 m/S 757 mmHg 50%
    12:00 +12°C° 0 mm 4 m/S 757 mmHg 47%
    13:00 +13°C° 0 mm 4 m/S 756 mmHg 43%
    14:00 +13°C° 0 mm 4 m/S 756 mmHg 44%
    15:00 +12°C° 0 mm 4 m/S 756 mmHg 44%
    16:00 +12°C° 0 mm 4 m/S 756 mmHg 45%
    17:00 +11°C° 0 mm 3 m/S 756 mmHg 49%
    18:00 +10°C° 0 mm 3 m/S 756 mmHg 53%
    19:00 +9°C° 0 mm 2 m/S 756 mmHg 57%
    20:00 +8°C° 0 mm 2 m/S 756 mmHg 59%
    21:00 +8°C° 0 mm 2 m/S 756 mmHg 60%
    22:00 +7°C° 0 mm 3 m/S 756 mmHg 62%
    23:00 +7°C° 0 mm 3 m/S 756 mmHg 64%
    Mehr zeigen